Location: Moy Burn
(57.3833°N, 4.0667°W)
Time: 10:18:57
(UTC+00:00)

Cosmos 2100 Rocket - Pass Details

Date: 08 August 2020
Orbit: 957 x 1000 km, 82.9° (Epoch: 18 September)

Event Time Altitude Azimuth Distance (km) Brightness Sun altitude
Exits shadow 22:05:36 14° 158° (SSE) 2,377 5.4 -11.6°
Maximum altitude 22:10:31 46° 90° (E) 1,262 4.4 -11.9°
Drops below altitude 10° 22:16:22 10° 19° (NNE) 2,703 6.9 -12.3°
Sets 22:18:57 0° 14° (NNE) 3,655 7.7 -12.5°
